Malaviya Twenty — AUEV — position and weather

sailwx.info

Track history (hours):
 
Tides and Currents Weather Stations Pressure Air Temp Water Temp Dewpoint Dewpoint Depression Visibility Wind Speed Wind Dir Waves Ship Positions

Malaviya Twenty

Last reported at 2014-Nov-26 02:08 UTC. Time now 2014-Nov-27 00:17 UTC.
Position N 53°15' E 001°28'.

Length 72 m; draft 4.7 m.

Type: Ship. MMSI: 419504000.

Date/timePositionNaut miles runAvg speedWind from/ knotsBaromVisibWave heightAir tempDewpointWater temp
2014-Nov-26 02:08N 53°15' E 001°28'5 8.6
2014-Nov-26 01:33N 53°10' E 001°28'8 8.5
2014-Nov-26 00:34N 53°01' E 001°28'8 8.2
2014-Nov-25 23:33N 52°54' E 001°35'8 8.5
2014-Nov-25 22:33N 52°47' E 001°42'7 6.7
2014-Nov-25 21:33N 52°41' E 001°46'6 6.4
2014-Nov-25 20:34N 52°34' E 001°45'1 1.4
2014-Nov-25 19:32N 52°36' E 001°44'0 0.0
2014-Nov-25 18:32N 52°36' E 001°44'0 0.0
2014-Nov-25 17:32N 52°36' E 001°44'0 0.0
2014-Nov-25 16:32N 52°36' E 001°44'0 0.0
2014-Nov-25 15:32N 52°36' E 001°44'0 0.2
2014-Nov-25 14:32N 52°36' E 001°44'0 0.0
2014-Nov-25 13:32N 52°36' E 001°44'0 0.0
2014-Nov-25 12:32N 52°36' E 001°44'0 0.0
2014-Nov-25 11:32N 52°36' E 001°44'0 0.0
2014-Nov-25 10:31N 52°36' E 001°44'0 0.0
2014-Nov-25 09:31N 52°36' E 001°44'0 0.0
2014-Nov-25 08:31N 52°36' E 001°44'0 0.0
2014-Nov-25 07:31N 52°36' E 001°44'0 0.0
2014-Nov-25 06:31N 52°36' E 001°44'0 0.0
2014-Nov-25 05:31N 52°36' E 001°44'0 0.0
2014-Nov-25 04:31N 52°36' E 001°44'0 0.0
2014-Nov-25 03:31N 52°36' E 001°44'0 0.0
2014-Nov-25 02:31N 52°36' E 001°44'0 0.0
2014-Nov-25 01:31N 52°36' E 001°44'0 0.0
2014-Nov-25 00:31N 52°36' E 001°44'0 0.0
2014-Nov-24 23:31N 52°36' E 001°44'0 0.0
2014-Nov-24 22:31N 52°36' E 001°44'0 0.0
2014-Nov-24 21:31N 52°36' E 001°44'0 0.0
2014-Nov-24 20:31N 52°36' E 001°44'0 0.0
2014-Nov-24 19:34N 52°36' E 001°44'4 3.6
2014-Nov-24 18:34N 52°39' E 001°46'9 9.3
2014-Nov-24 17:33N 52°47' E 001°53'9 9.0
2014-Nov-24 16:33N 52°54' E 002°03'11 2.1
2014-Nov-24 11:33N 53°02' E 002°14'1 0.9
2014-Nov-24 10:33N 53°03' E 002°14'0 0.0
2014-Nov-24 09:32N 53°03' E 002°14'4 0.4
2014-Nov-23 23:26N 52°59' E 002°14'4 2.0
2014-Nov-23 21:30N 53°03' E 002°14'0 0.0
2014-Nov-23 20:32N 53°03' E 002°14'4 0.5
2014-Nov-23 13:27N 52°60' E 002°15'1 0.2
2014-Nov-23 06:06N 53°01' E 002°14'1 0.2
2014-Nov-23 01:07N 53°02' E 002°14'1 0.3
2014-Nov-22 21:30N 53°03' E 002°14'0 0.0
2014-Nov-22 20:33N 53°03' E 002°14'0 0.0
2014-Nov-22 19:32N 53°03' E 002°14'3 0.6
2014-Nov-22 15:06N 53°00' E 002°14'0 0.0
2014-Nov-22 14:07N 53°01' E 002°14'0 0.1
2014-Nov-22 12:31N 53°01' E 002°14'2 1.1
2014-Nov-22 10:15N 53°03' E 002°14'0 0.0
2014-Nov-22 09:30N 53°03' E 002°14'2 0.7
2014-Nov-22 06:05N 53°01' E 002°14'1 0.3
2014-Nov-22 04:15N 53°00' E 002°15'1 1.3
2014-Nov-22 03:33N 53°01' E 002°14'0 0.4
2014-Nov-22 02:33N 53°01' E 002°14'0 0.3
2014-Nov-22 01:07N 53°01' E 002°15'1 1.8
2014-Nov-22 00:30N 53°01' E 002°13'1 0.3
2014-Nov-21 20:19N 53°01' E 002°15'1 0.1
2014-Nov-21 14:19N 53°01' E 002°14'1 0.8
2014-Nov-21 13:28N 53°02' E 002°14'2 1.7
2014-Nov-21 12:32N 53°00' E 002°14'2 1.3
2014-Nov-21 11:07N 53°02' E 002°14'1 0.2
2014-Nov-21 06:18N 53°03' E 002°14'0 0.0
2014-Nov-21 05:32N 53°03' E 002°14'0 0.4
2014-Nov-21 04:27N 53°03' E 002°14'2 0.6
2014-Nov-21 01:28N 53°01' E 002°14'1 0.9
2014-Nov-21 00:32N 53°02' E 002°14'10 5.0
2014-Nov-20 22:31N 52°54' E 002°03'7 7.5
2014-Nov-20 21:33N 52°49' E 001°55'9 8.5
2014-Nov-20 20:34N 52°42' E 001°47'8 7.8
2014-Nov-20 19:33N 52°34' E 001°45'1 1.3
2014-Nov-20 18:31N 52°36' E 001°44'0 0.0
2014-Nov-20 17:31N 52°36' E 001°44'0 0.0
2014-Nov-20 16:31N 52°36' E 001°44'0 0.0
2014-Nov-20 15:31N 52°36' E 001°44'0 0.0
2014-Nov-20 14:31N 52°36' E 001°44'0 0.0
2014-Nov-20 13:31N 52°36' E 001°44'0 0.0
2014-Nov-20 12:31N 52°36' E 001°44'0 0.0
2014-Nov-20 11:31N 52°36' E 001°44'1 1.3
2014-Nov-20 10:33N 52°35' E 001°45'5 5.2
2014-Nov-20 09:34N 52°40' E 001°46'7 6.9
2014-Nov-20 08:33N 52°46' E 001°52'9 8.7
2014-Nov-20 07:33N 52°53' E 002°00'13 6.2
2014-Nov-20 05:26N 53°03' E 002°14'0 0.0
2014-Nov-20 04:32N 53°03' E 002°14'11 1.8
2014-Nov-19 22:16N 53°12' E 002°03'11 0.6
2014-Nov-19 03:30N 53°03' E 002°14'8 1.9
2014-Nov-18 23:27N 52°56' E 002°07'8 9.0
2014-Nov-18 22:33N 52°51' E 001°58'9 9.3
2014-Nov-18 21:34N 52°44' E 001°48'9 9.1
2014-Nov-18 20:33N 52°35' E 001°45'1 1.4
2014-Nov-18 19:32N 52°36' E 001°44'0 0.0
2014-Nov-18 18:32N 52°36' E 001°44'0 0.0
2014-Nov-18 17:32N 52°36' E 001°44'0 0.0
2014-Nov-18 16:32N 52°36' E 001°44'0 0.0
2014-Nov-18 15:32N 52°36' E 001°44'0 0.0
2014-Nov-18 14:32N 52°36' E 001°44'0 0.0
2014-Nov-18 13:32N 52°36' E 001°44'0 0.0
2014-Nov-18 12:32N 52°36' E 001°44'0 0.0
2014-Nov-18 11:32N 52°36' E 001°44'0 0.0
2014-Nov-18 10:32N 52°36' E 001°44'0 0.0
2014-Nov-18 09:32N 52°36' E 001°44'0 0.0
2014-Nov-18 08:32N 52°36' E 001°44'0 0.0
2014-Nov-18 07:32N 52°36' E 001°44'0 0.0
2014-Nov-18 06:32N 52°36' E 001°44'0 0.0
2014-Nov-18 05:32N 52°36' E 001°44'0 0.0
2014-Nov-18 04:32N 52°36' E 001°44'0 0.0
2014-Nov-18 03:32N 52°36' E 001°44'0 0.0
2014-Nov-18 02:31N 52°36' E 001°44'0 0.0
2014-Nov-18 01:31N 52°36' E 001°44'0 0.0
2014-Nov-18 00:31N 52°36' E 001°44'0 0.0
2014-Nov-17 23:31N 52°36' E 001°44'0 0.0
2014-Nov-17 22:31N 52°36' E 001°44'0 0.0
2014-Nov-17 21:31N 52°36' E 001°44'1 1.3
2014-Nov-17 20:33N 52°34' E 001°44'4 4.2
2014-Nov-17 19:33N 52°38' E 001°46'7 6.9
2014-Nov-17 18:33N 52°45' E 001°50'9 8.7
2014-Nov-17 17:33N 52°52' E 001°59'  
Track history (hours):
 
Tides and Currents Weather Stations Pressure Air Temp Water Temp Dewpoint Dewpoint Depression Visibility Wind Speed Wind Dir Waves Ship Positions

Malaviya Twenty

Last reported at 2014-Nov-26 02:08 UTC. Time now 2014-Nov-27 00:17 UTC.
Position N 53°15' E 001°28'.

Length 72 m; draft 4.7 m.

Type: Ship. MMSI: 419504000.

Date/timePositionNaut miles runAvg speedWind from/ knotsBaromVisibWave heightAir tempDewpointWater temp
2014-Nov-26 02:08N 53°15' E 001°28'5 8.6
2014-Nov-26 01:33N 53°10' E 001°28'8 8.5
2014-Nov-26 00:34N 53°01' E 001°28'8 8.2
2014-Nov-25 23:33N 52°54' E 001°35'8 8.5
2014-Nov-25 22:33N 52°47' E 001°42'7 6.7
2014-Nov-25 21:33N 52°41' E 001°46'6 6.4
2014-Nov-25 20:34N 52°34' E 001°45'1 1.4
2014-Nov-25 19:32N 52°36' E 001°44'0 0.0
2014-Nov-25 18:32N 52°36' E 001°44'0 0.0
2014-Nov-25 17:32N 52°36' E 001°44'0 0.0
2014-Nov-25 16:32N 52°36' E 001°44'0 0.0
2014-Nov-25 15:32N 52°36' E 001°44'0 0.2
2014-Nov-25 14:32N 52°36' E 001°44'0 0.0
2014-Nov-25 13:32N 52°36' E 001°44'0 0.0
2014-Nov-25 12:32N 52°36' E 001°44'0 0.0
2014-Nov-25 11:32N 52°36' E 001°44'0 0.0
2014-Nov-25 10:31N 52°36' E 001°44'0 0.0
2014-Nov-25 09:31N 52°36' E 001°44'0 0.0
2014-Nov-25 08:31N 52°36' E 001°44'0 0.0
2014-Nov-25 07:31N 52°36' E 001°44'0 0.0
2014-Nov-25 06:31N 52°36' E 001°44'0 0.0
2014-Nov-25 05:31N 52°36' E 001°44'0 0.0
2014-Nov-25 04:31N 52°36' E 001°44'0 0.0
2014-Nov-25 03:31N 52°36' E 001°44'0 0.0
2014-Nov-25 02:31N 52°36' E 001°44'0 0.0
2014-Nov-25 01:31N 52°36' E 001°44'0 0.0
2014-Nov-25 00:31N 52°36' E 001°44'0 0.0
2014-Nov-24 23:31N 52°36' E 001°44'0 0.0
2014-Nov-24 22:31N 52°36' E 001°44'0 0.0
2014-Nov-24 21:31N 52°36' E 001°44'0 0.0
2014-Nov-24 20:31N 52°36' E 001°44'0 0.0
2014-Nov-24 19:34N 52°36' E 001°44'4 3.6
2014-Nov-24 18:34N 52°39' E 001°46'9 9.3
2014-Nov-24 17:33N 52°47' E 001°53'9 9.0
2014-Nov-24 16:33N 52°54' E 002°03'11 2.1
2014-Nov-24 11:33N 53°02' E 002°14'1 0.9
2014-Nov-24 10:33N 53°03' E 002°14'0 0.0
2014-Nov-24 09:32N 53°03' E 002°14'4 0.4
2014-Nov-23 23:26N 52°59' E 002°14'4 2.0
2014-Nov-23 21:30N 53°03' E 002°14'0 0.0
2014-Nov-23 20:32N 53°03' E 002°14'4 0.5
2014-Nov-23 13:27N 52°60' E 002°15'1 0.2
2014-Nov-23 06:06N 53°01' E 002°14'1 0.2
2014-Nov-23 01:07N 53°02' E 002°14'1 0.3
2014-Nov-22 21:30N 53°03' E 002°14'0 0.0
2014-Nov-22 20:33N 53°03' E 002°14'0 0.0
2014-Nov-22 19:32N 53°03' E 002°14'3 0.6
2014-Nov-22 15:06N 53°00' E 002°14'0 0.0
2014-Nov-22 14:07N 53°01' E 002°14'0 0.1
2014-Nov-22 12:31N 53°01' E 002°14'2 1.1
2014-Nov-22 10:15N 53°03' E 002°14'0 0.0
2014-Nov-22 09:30N 53°03' E 002°14'2 0.7
2014-Nov-22 06:05N 53°01' E 002°14'1 0.3
2014-Nov-22 04:15N 53°00' E 002°15'1 1.3
2014-Nov-22 03:33N 53°01' E 002°14'0 0.4
2014-Nov-22 02:33N 53°01' E 002°14'0 0.3
2014-Nov-22 01:07N 53°01' E 002°15'1 1.8
2014-Nov-22 00:30N 53°01' E 002°13'1 0.3
2014-Nov-21 20:19N 53°01' E 002°15'1 0.1
2014-Nov-21 14:19N 53°01' E 002°14'1 0.8
2014-Nov-21 13:28N 53°02' E 002°14'2 1.7
2014-Nov-21 12:32N 53°00' E 002°14'2 1.3
2014-Nov-21 11:07N 53°02' E 002°14'1 0.2
2014-Nov-21 06:18N 53°03' E 002°14'0 0.0
2014-Nov-21 05:32N 53°03' E 002°14'0 0.4
2014-Nov-21 04:27N 53°03' E 002°14'2 0.6
2014-Nov-21 01:28N 53°01' E 002°14'1 0.9
2014-Nov-21 00:32N 53°02' E 002°14'10 5.0
2014-Nov-20 22:31N 52°54' E 002°03'7 7.5
2014-Nov-20 21:33N 52°49' E 001°55'9 8.5
2014-Nov-20 20:34N 52°42' E 001°47'8 7.8
2014-Nov-20 19:33N 52°34' E 001°45'1 1.3
2014-Nov-20 18:31N 52°36' E 001°44'0 0.0
2014-Nov-20 17:31N 52°36' E 001°44'0 0.0
2014-Nov-20 16:31N 52°36' E 001°44'0 0.0
2014-Nov-20 15:31N 52°36' E 001°44'0 0.0
2014-Nov-20 14:31N 52°36' E 001°44'0 0.0
2014-Nov-20 13:31N 52°36' E 001°44'0 0.0
2014-Nov-20 12:31N 52°36' E 001°44'0 0.0
2014-Nov-20 11:31N 52°36' E 001°44'1 1.3
2014-Nov-20 10:33N 52°35' E 001°45'5 5.2
2014-Nov-20 09:34N 52°40' E 001°46'7 6.9
2014-Nov-20 08:33N 52°46' E 001°52'9 8.7
2014-Nov-20 07:33N 52°53' E 002°00'13 6.2
2014-Nov-20 05:26N 53°03' E 002°14'0 0.0
2014-Nov-20 04:32N 53°03' E 002°14'11 1.8
2014-Nov-19 22:16N 53°12' E 002°03'11 0.6
2014-Nov-19 03:30N 53°03' E 002°14'8 1.9
2014-Nov-18 23:27N 52°56' E 002°07'8 9.0
2014-Nov-18 22:33N 52°51' E 001°58'9 9.3
2014-Nov-18 21:34N 52°44' E 001°48'9 9.1
2014-Nov-18 20:33N 52°35' E 001°45'1 1.4
2014-Nov-18 19:32N 52°36' E 001°44'0 0.0
2014-Nov-18 18:32N 52°36' E 001°44'0 0.0
2014-Nov-18 17:32N 52°36' E 001°44'0 0.0
2014-Nov-18 16:32N 52°36' E 001°44'0 0.0
2014-Nov-18 15:32N 52°36' E 001°44'0 0.0
2014-Nov-18 14:32N 52°36' E 001°44'0 0.0
2014-Nov-18 13:32N 52°36' E 001°44'0 0.0
2014-Nov-18 12:32N 52°36' E 001°44'0 0.0
2014-Nov-18 11:32N 52°36' E 001°44'0 0.0
2014-Nov-18 10:32N 52°36' E 001°44'0 0.0
2014-Nov-18 09:32N 52°36' E 001°44'0 0.0
2014-Nov-18 08:32N 52°36' E 001°44'0 0.0
2014-Nov-18 07:32N 52°36' E 001°44'0 0.0
2014-Nov-18 06:32N 52°36' E 001°44'0 0.0
2014-Nov-18 05:32N 52°36' E 001°44'0 0.0
2014-Nov-18 04:32N 52°36' E 001°44'0 0.0
2014-Nov-18 03:32N 52°36' E 001°44'0 0.0
2014-Nov-18 02:31N 52°36' E 001°44'0 0.0
2014-Nov-18 01:31N 52°36' E 001°44'0 0.0
2014-Nov-18 00:31N 52°36' E 001°44'0 0.0
2014-Nov-17 23:31N 52°36' E 001°44'0 0.0
2014-Nov-17 22:31N 52°36' E 001°44'0 0.0
2014-Nov-17 21:31N 52°36' E 001°44'1 1.3
2014-Nov-17 20:33N 52°34' E 001°44'4 4.2
2014-Nov-17 19:33N 52°38' E 001°46'7 6.9
2014-Nov-17 18:33N 52°45' E 001°50'9 8.7
2014-Nov-17 17:33N 52°52' E 001°59'  

Dump ship's entire track history